Other Public Products
Issued by NWS Charleston, SC

Current Version | Previous Version | Text Only | Print | Product List | Glossary On
Versions: 1 2 3 4 5 6 7 8 9 10 11 12 13 14 15 16 17 18 19 20 21 22 23 24 25 26 27 28 29 30 31 32 33 34 35 36 37 38 39 40 41 42 43 44 45 46 47 48 49 50
000 FPUS82 KCHS 241729 OPUCHS TEST...KCHS/KSAV Gateway Observations...TEST National Weather Service Charleston SC 100 PM EDT SUN SEP 24 2017 NOTE: "fair" indicates few or no clouds below 12,000 feet with no significant weather and/or obstructions to visibility. SCZ050-WAZ558-NCZ071-TXZ119-213-PAZ071-DCZ001-FLZ074-172-MI076- NYZ176-178-MAZ016-IL014-TNZ027-NJZ106-GAZ044-MD014-241800- ...Gateway Observations for Charleston International... CITY SKY/WX TMP DP RH WIND PRES REMARKS Chas Airport PTSUNNY 81 68 64 NE12 29.99F Seattle PTSUNNY 57 51 80 CALM 30.16F Charlotte PTSUNNY 82 65 56 N7 30.10F Dallas DFW PTSUNNY 85 69 58 SE15G22 29.94S Dallas Love MOSUNNY 84 68 58 S9 29.94F Philladelphia MOSUNNY 89 64 43 E9 30.06F HX 90 Wash National MOSUNNY 89 65 44 CALM 30.08F HX 91 Baltimore MOSUNNY 88 65 46 VRB5 30.07F HX 90 Miami PTSUNNY 90 73 57 CALM 29.87F HX 98 Detroit SUNNY 86 64 47 S7 30.16F Newark SUNNY 89 62 40 NE10 30.06F Laguardia SUNNY 87 64 46 NE9 30.05F J F K SUNNY 90 64 42 NE10 30.06F HX 91 Boston Logan SUNNY 77 63 61 SE6 30.05F Ft. Lauderdale PTSUNNY 89 78 70 VRB7 29.87F HX 103 Chicago O`Hare MOSUNNY 89 62 40 SW9 30.08F Chicago Midway MOSUNNY 89 62 40 SW7 30.08F Houston Bush MOSUNNY 86 73 65 SE10 29.91F HX 93 Houston Hobby PTSUNNY 90 73 57 E9 29.90F HX 98 Nashville MOSUNNY 87 63 44 SW6 30.06F Atlanta PTSUNNY 81 61 50 E14 30.08F $$ GAZ044-118-TXZ119-213-NCZ071-DCZ001-MDZ014-506-PAZ021-071-NJZ106- NYZ176-178-MAZ106-OHZ011-021-055-MIZ076-KYZ091-ILZ014-INZ047- MNZ060-ONZ431-241800- ...Gateway Observations for Savannah International... CITY SKY/WX TMP DP RH WIND PRES REMARKS Savannah Arpt PTSUNNY 85 69 58 NE7G18 29.99F Atlanta PTSUNNY 81 61 50 E14 30.08F Charlotte PTSUNNY 82 65 56 N7 30.10F Dallas DFW PTSUNNY 85 69 58 SE15G22 29.94S Houston Bush MOSUNNY 86 73 65 SE10 29.91F HX 93 Wash National MOSUNNY 89 65 44 CALM 30.08F HX 91 Wash Dulles MOSUNNY 86 66 51 NE8 30.09F Baltimore MOSUNNY 88 65 46 VRB5 30.07F HX 90 Philadelphia MOSUNNY 89 64 43 E9 30.06F HX 90 Newark SUNNY 89 62 40 NE10 30.06F Laguardia SUNNY 87 64 46 NE9 30.05F J F K SUNNY 90 64 42 NE10 30.06F HX 91 Boston SUNNY 77 63 61 SE6 30.05F Pittsburg MOSUNNY 86 62 44 VRB3 30.17F Akron MOSUNNY 88 61 40 SE5 30.17F Cleveland SUNNY 91 63 39 VRB7 30.16F HX 92 Cincinnati SUNNY 85 64 49 SE8 30.11F Columbus SUNNY 87 56 35 SE10 30.12F Detroit SUNNY 86 64 47 S7 30.16F Chicago O`Hare MOSUNNY 89 62 40 SW9 30.08F Minneapolis PTSUNNY 86 68 54 S10G18 29.93F Indianapolis MOSUNNY 86 59 39 SE8 30.10F Toronto Canada MOSUNNY 90 66 45 NW3 30.13F HX 92 $$

USA.gov is the U.S. government's official web portal to all federal, state and local government web resources and services.